Regional Weather Roundup
Issued by NWS Albany, NY

Home | Current Version | Previous Version | Text Only | Print | Product List | Glossary On
Versions: 1 2 3 4 5 6 7 8 9 10 11 12 13 14 15 16 17 18 19 20 21 22 23 24 25 26 27 28
000
ASUS41 KALY 280610
RWRALY

NEW YORK STATE HOURLY WEATHER ROUNDUP
NATIONAL WEATHER SERVICE ALBANY NY
200 AM EDT WED JUN 28 2017

NOTE: "FAIR" INDICATES FEW OR NO CLOUDS BELOW 12,000 FEET WITH NO
SIGNIFICANT WEATHER AND/OR NO OBSTRUCTIONS TO VISIBILITY.

NYZ032-033-038>043-046>054-057>066-NYZ062>081-082-084-280700-
EAST


CITY           SKY/WX    TMP DP  RH WIND       PRES   REMARKS
ALBANY         MOCLDY    54  51  90 SW3       30.01R
GLENS FALLS    PTCLDY    50  49  96 S5        29.98S
POUGHKEEPSIE   CLEAR     54  50  86 CALM      30.01S
NEWBURGH       CLEAR     55  52  88 W9        30.04R
MONTGOMERY     CLEAR     53  50  89 SW6       30.04R
WHITE PLAINS   PTCLDY    57  53  86 NW6       30.02S
ISLIP          CLOUDY    61  54  77 NW6       30.01R
NEW YORK CITY  CLEAR     67  52  58 NW12      30.02S
CENTRAL PARK   CLEAR     66  49  54 VRB6      30.06R
$$

NYZ005>009-017-018-044>046-055-056-280700-
CENTRAL


CITY           SKY/WX    TMP DP  RH WIND       PRES   REMARKS
FULTON         PTCLDY    55  52  89 SW5       30.02S
SYRACUSE       PTCLDY    56  54  93 SW10      30.02S
ROME           CLOUDY    56  55  97 CALM      30.03S
ELMIRA         CLEAR     54  50  86 SW6       30.06S
BINGHAMTON     CLEAR     50  48  93 W8        30.05S
MONTICELLO     CLEAR     50  48  93 W6        30.06S
$$

NYZ026>034-041>043-087-280700-
NORTH


CITY           SKY/WX    TMP DP  RH WIND       PRES   REMARKS
WATERTOWN      MOCLDY    59  56  89 W7        29.99S
FORT DRUM      NOT AVBL
OGDENSBURG     FAIR      55  54  95 SW5       29.96S
MASSENA        MOCLDY    56  55  97 SW6       29.95S
SARANAC LAKE   CLOUDY    52  52 100 SW8       29.95S
PLATTSBURGH    CLOUDY    55  52  89 SW3       29.93F
$$

NYZ001>004-010>016-019>021-085-280700-
WEST


CITY           SKY/WX    TMP DP  RH WIND       PRES   REMARKS
NIAGARA FALLS  CLOUDY    59  51  75 SW6       30.03F
BUFFALO        CLOUDY    61  52  72 SW8       30.04F
DUNKIRK        PTCLDY    56  47  71 S8        30.07S
JAMESTOWN      PTCLDY    52  43  71 SW6       30.09S
WELLSVILLE     CLEAR     51  45  79 W8        30.11R
ROCHESTER      CLEAR     53  49  86 SW6       30.04S
PENN YAN       PTCLDY    57  49  74 SW9       30.06S
$$

             KEY
       WCI = WIND CHILL INDEX
       VSB = VISIBILITY
       HX  = HEAT INDEX
$$




USA.gov is the U.S. government's official web portal to all federal, state and local government web resources and services.